Date String (YYYY-MM-DD hh:mm:ss) UTC,Instrument flags,Ambient pressure (hPa),Sample flow (lpm),Bypass flow (lpm),Sample temperature (°C),Ambient temperature (°C),ASC tube jacket temperature (°C),LED temperature (°C),Box temperature (°C),Sample RH (%),Span deviation,Mass concentration (μg/m³),Mass concentration (μg/m³),Mass concentration (μg/m³)
DateTimeUTC,F1_M11,P_M11,Q1_M11,Q2_M11,T1_M11,T2_M11,T3_M11,T4_M11,T5_M11,U1_M11,ZSPAN_M11,X0_M11,X2_M11,X1_M11
2022-11-05 15:00:00,,0811.8,5.00,0.00,22.1,20.9,00.0,30.9,24.0,15.3,0000.0,0001.72,0000.63,0000.41
2022-11-05 15:01:00,,0811.9,5.00,0.00,22.1,20.8,00.0,30.9,23.9,15.3,0000.0,0001.90,0000.68,0000.41
2022-11-05 15:02:00,,0811.8,5.00,0.00,22.1,20.7,00.0,30.9,23.9,15.2,0000.0,0001.92,0000.67,0000.40
2022-11-05 15:03:00,,0811.8,5.00,0.00,22.1,20.6,00.0,30.9,23.9,15.1,0000.0,0001.62,0000.63,0000.39
2022-11-05 15:04:00,,0811.8,4.99,0.00,22.1,20.6,00.0,30.9,23.9,15.2,0000.0,0001.41,0000.63,0000.39
2022-11-05 15:05:00,,0811.9,5.00,0.00,22.1,20.6,00.0,30.9,23.9,15.1,0000.0,0001.40,0000.62,0000.38
2022-11-05 15:06:00,,0811.9,5.01,0.00,22.0,20.5,00.0,30.9,23.8,15.0,0000.0,0002.13,0000.63,0000.37
2022-11-05 15:07:00,,0811.8,5.00,0.00,22.0,20.5,00.0,30.9,23.8,15.3,0000.0,0002.37,0000.65,0000.36
2022-11-05 15:08:00,,0811.8,5.00,0.00,22.0,20.5,00.0,30.9,23.9,15.3,0000.0,0002.41,0000.67,0000.36
2022-11-05 15:09:00,,0811.6,4.99,0.00,22.0,20.4,00.0,30.9,23.8,15.0,0000.0,0002.44,0000.67,0000.36
2022-11-05 15:10:00,,0811.5,4.99,0.00,22.0,20.4,00.0,30.9,23.8,15.0,0000.0,0002.37,0000.66,0000.36
2022-11-05 15:11:00,,0811.5,5.01,0.00,22.0,20.4,00.0,30.9,23.7,15.1,0000.0,0002.43,0000.66,0000.36
2022-11-05 15:12:00,,0811.4,5.01,0.00,21.9,20.3,00.0,30.9,23.7,15.3,0000.0,0003.18,0000.60,0000.36
2022-11-05 15:13:00,,0811.5,4.99,0.00,21.9,20.3,00.0,30.9,23.7,15.4,0000.0,0003.18,0000.57,0000.35
2022-11-05 15:14:00,,0811.5,4.99,0.00,21.9,20.3,00.0,30.8,23.7,15.2,0000.0,0003.95,0000.60,0000.35
2022-11-05 15:15:00,,0811.4,5.01,0.00,21.9,20.5,00.0,30.8,23.7,15.2,0000.0,0004.89,0000.61,0000.36
2022-11-05 15:16:00,,0811.3,5.01,0.00,22.0,21.6,00.0,30.8,24.0,15.2,0000.0,0005.62,0000.61,0000.36
2022-11-05 15:17:00,,0811.0,4.99,0.00,22.1,22.4,00.0,30.8,24.2,15.1,0000.0,0006.37,0000.64,0000.36
2022-11-05 15:18:00,,0811.6,4.99,0.00,22.2,22.2,00.0,30.9,24.3,14.9,0000.0,0007.29,0000.63,0000.36
2022-11-05 15:19:00,,0811.6,5.01,0.00,22.2,21.9,00.0,30.9,24.2,14.9,0000.0,0007.26,0000.61,0000.35
2022-11-05 15:20:00,,0811.5,5.00,0.00,22.2,21.6,00.0,30.9,24.1,14.9,0000.0,0007.24,0000.61,0000.34
2022-11-05 15:21:00,,0811.6,4.99,0.00,22.2,21.3,00.0,31.0,24.1,14.9,0000.0,0007.18,0000.61,0000.34
2022-11-05 15:22:00,,0811.3,4.98,0.00,22.2,21.2,00.0,31.0,24.1,15.0,0000.0,0007.06,0000.60,0000.33
2022-11-05 15:23:00,,0811.3,5.00,0.00,22.2,21.1,00.0,31.0,24.1,15.3,0000.0,0006.17,0000.63,0000.33
2022-11-05 15:24:00,,0811.2,5.01,0.00,22.2,21.0,00.0,31.0,24.0,15.0,0000.0,0006.11,0000.63,0000.33
2022-11-05 15:25:00,,0811.1,5.00,0.00,22.2,20.9,00.0,31.0,24.0,15.2,0000.0,0005.49,0000.61,0000.32
2022-11-05 15:26:00,,0811.3,5.01,0.00,22.2,20.8,00.0,31.0,24.0,15.2,0000.0,0005.73,0000.58,0000.31
2022-11-05 15:27:00,,0811.2,5.00,0.00,22.1,20.7,00.0,31.0,24.0,15.1,0000.0,0005.20,0000.63,0000.31
2022-11-05 15:28:00,,0811.2,4.99,0.00,22.1,20.6,00.0,31.0,24.0,15.0,0000.0,0003.99,0000.59,0000.30
2022-11-05 15:29:00,,0811.2,4.99,0.00,22.1,20.6,00.0,31.0,23.9,14.9,0000.0,0002.70,0000.58,0000.29
2022-11-05 15:30:00,,0811.1,5.00,0.00,22.1,20.5,00.0,31.0,23.9,14.8,0000.0,0002.71,0000.58,0000.30
2022-11-05 15:31:00,,0811.3,5.01,0.00,22.1,20.5,00.0,31.0,23.8,14.8,0000.0,0002.70,0000.58,0000.30
2022-11-05 15:32:00,,0811.3,5.01,0.00,22.0,20.4,00.0,31.0,23.8,15.0,0000.0,0002.91,0000.59,0000.30
2022-11-05 15:33:00,,0811.2,4.98,0.00,22.0,20.4,00.0,30.9,23.8,14.8,0000.0,0003.08,0000.60,0000.29
2022-11-05 15:34:00,,0811.0,5.02,0.00,22.0,20.4,00.0,30.9,23.8,15.0,0000.0,0002.97,0000.57,0000.28
2022-11-05 15:35:00,,0811.0,4.99,0.00,22.0,20.4,00.0,30.9,23.8,14.8,0000.0,0002.84,0000.54,0000.28
2022-11-05 15:36:00,,0811.0,5.01,0.00,22.0,20.4,00.0,30.9,23.8,14.9,0000.0,0002.71,0000.54,0000.27
2022-11-05 15:37:00,,0811.2,5.00,0.00,22.0,21.2,00.0,30.9,24.0,14.9,0000.0,0001.55,0000.54,0000.27
2022-11-05 15:38:00,,0811.2,4.99,0.00,22.1,22.2,00.0,30.8,24.2,14.8,0000.0,0001.43,0000.50,0000.25
2022-11-05 15:39:00,,0811.2,4.99,0.00,22.2,22.3,00.0,30.9,24.4,14.7,0000.0,0001.42,0000.49,0000.25
2022-11-05 15:40:00,,0811.3,5.01,0.00,22.3,22.0,00.0,31.0,24.3,14.9,0000.0,0001.34,0000.48,0000.24
2022-11-05 15:41:00,,0811.1,5.01,0.00,22.3,21.7,00.0,31.0,24.3,14.7,0000.0,0001.34,0000.48,0000.24
2022-11-05 15:42:00,,0811.2,4.98,0.00,22.3,21.5,00.0,31.0,24.2,14.7,0000.0,0001.43,0000.47,0000.23
2022-11-05 15:43:00,,0811.3,5.00,0.00,22.3,21.3,00.0,31.0,24.2,14.7,0000.0,0001.75,0000.44,0000.22
2022-11-05 15:44:00,,0811.1,5.01,0.00,22.3,21.2,00.0,31.0,24.2,14.9,0000.0,0002.77,0000.46,0000.23
2022-11-05 15:45:00,,0811.1,5.00,0.00,22.3,21.0,00.0,31.0,24.1,14.9,0000.0,0003.18,0000.48,0000.23
2022-11-05 15:46:00,,0811.2,5.00,0.00,22.2,20.9,00.0,31.0,24.1,14.8,0000.0,0003.25,0000.49,0000.23
2022-11-05 15:47:00,,0811.2,4.99,0.00,22.2,20.8,00.0,31.0,24.1,14.8,0000.0,0003.36,0000.50,0000.24
2022-11-05 15:48:00,,0811.2,4.99,0.00,22.2,20.8,00.0,31.0,24.0,14.9,0000.0,0003.32,0000.51,0000.24
2022-11-05 15:49:00,,0811.3,5.00,0.00,22.2,20.7,00.0,31.0,24.0,14.8,0000.0,0003.25,0000.49,0000.25
2022-11-05 15:50:00,,0811.1,5.00,0.00,22.2,20.6,00.0,31.0,24.0,14.9,0000.0,0003.22,0000.50,0000.26
2022-11-05 15:51:00,,0811.0,5.00,0.00,22.1,20.6,00.0,31.0,23.9,14.8,0000.0,0003.24,0000.51,0000.26
2022-11-05 15:52:00,,0811.3,5.00,0.00,22.1,20.4,00.0,31.0,23.8,14.7,0000.0,0003.27,0000.53,0000.27
2022-11-05 15:53:00,,0811.3,5.01,0.00,22.1,20.3,00.0,31.0,23.8,14.9,0000.0,0003.13,0000.51,0000.28
2022-11-05 15:54:00,,0811.4,5.00,0.00,22.0,20.3,00.0,31.0,23.8,14.9,0000.0,0002.54,0000.52,0000.28
2022-11-05 15:55:00,,0811.4,5.00,0.00,22.1,21.1,00.0,31.0,24.0,14.7,0000.0,0001.36,0000.48,0000.28
2022-11-05 15:56:00,,0811.5,4.99,0.00,22.2,22.3,00.0,30.9,24.3,14.6,0000.0,0001.10,0000.49,0000.28
2022-11-05 15:57:00,,0811.4,5.00,0.00,22.3,22.5,00.0,31.0,24.4,14.7,0000.0,0001.10,0000.51,0000.28
2022-11-05 15:58:00,,0811.3,5.02,0.00,22.3,22.1,00.0,31.0,24.4,14.4,0000.0,0001.14,0000.53,0000.28
2022-11-05 15:59:00,,0811.3,4.99,0.00,22.3,21.8,00.0,31.1,24.3,14.3,0000.0,0001.35,0000.57,0000.28
